Flag for U.S.A. Weather past 2 weeks in Tallahassee, Florida, U.S.A.

65 °F

Passing clouds.

Feels Like: 65 °F
Forecast: 60 / 77 °F
Wind: 5 mph from East

Location: Tallahassee Regional Airport

Current Time: Nov 27, 2015 at 11:29:20 PM

Latest Report: Nov 27, 2015 at 10:53 PM

Visibility: 10 mi

Pressure: 30.27 "Hg

Humidity: 85%

Dew point: 60 °F

Location of TallahasseeLocation

Historic Weather in Tallahassee — Graph


Tallahassee temperature yesterday

Maximum temperature yesterday: 79 °F (at 1:53 PM)
Minimum temperature yesterday: 57 °F (at 6:53 AM)
Average temperature yesterday: 67 °F

Past Weeks' High & Low Weather Summary

High82 °F (Nov 17, 1:53 PM)100% (Nov 18, 8:53 PM)30.50 "Hg (Nov 18, 8:53 PM)
Low37 °F (Nov 24, 12:53 AM)25% (Nov 14, 12:53 PM)29.88 "Hg (Nov 22, 4:53 AM)
Average64 °F68%30.17 "Hg
* Reported Nov 12 9:53 PM — Nov 27 9:53 PM, Tallahassee, Weather by CustomWeather, © 2015

Note: Actual official high and low records may vary slightly from our data, if they occured in-between our weather recording intervals... More about our weather records


Tallahassee weather history for previous 24 hours

Time TempWeatherWind HumidityBarometerVisibility
9:53 PM
Fri, Nov 27
67 °FPassing clouds.8 mph79%30.27 "Hg10 mi
8:53 PM70 °FPassing clouds.8 mph71%30.27 "Hg10 mi
7:53 PM71 °FPassing clouds.9 mph68%30.27 "Hg10 mi
6:53 PM71 °FPassing clouds.6 mph68%30.27 "Hg10 mi
5:53 PM73 °FPassing clouds.6 mph66%30.24 "Hg10 mi
4:53 PM77 °FPassing clouds.10 mph56%30.24 "Hg10 mi
3:53 PM79 °FScattered clouds.13 mph50%30.25 "Hg10 mi
2:53 PM79 °FScattered clouds.13 mph48%30.27 "Hg10 mi
1:53 PM78 °FScattered clouds.10 mph50%30.29 "Hg10 mi
12:53 PM77 °FPassing clouds.9 mph56%30.32 "Hg10 mi
11:53 AM75 °FPassing clouds.8 mph60%30.35 "Hg10 mi
10:53 AM70 °FSunny.7 mph71%30.38 "Hg10 mi
10:01 AM67 °FScattered clouds.7 mph76%30.39 "Hg10 mi
9:53 AM66 °FPartly sunny.9 mph78%30.39 "Hg10 mi
8:53 AM63 °FLow clouds.7 mph87%30.38 "Hg10 mi
7:53 AM62 °FLow clouds.6 mph90%30.37 "Hg10 mi
6:53 AM63 °FLow clouds.9 mph87%30.37 "Hg10 mi
5:53 AM64 °FLow clouds.7 mph87%30.36 "Hg10 mi
4:53 AM64 °FLow clouds.5 mph87%30.36 "Hg10 mi
3:53 AM64 °FLow clouds.9 mph87%30.36 "Hg10 mi
2:53 AM64 °FLow clouds.9 mph87%30.37 "Hg10 mi
1:53 AM64 °FClear.8 mph87%30.38 "Hg10 mi
12:53 AM65 °FClear.10 mph85%30.38 "Hg10 mi
11:53 PM
Thu, Nov 26
66 °FClear.9 mph81%30.40 "Hg10 mi
Weather by CustomWeather, © 2015

See weather overviewHow to use our weather pages